Overview Statistics Trail Chart Weather Telemetry Raw packets
 

This is the latest recevied weather packets stored in our database for station/object SR3WXA. If no packets are shown the sender has not sent any weather packets the latest 10 day(s).

<< 111 112 113 114 115 116 117 >>
Time Temp. Humidity Pressure Rain* Wind** Luminosity Snow
1788173509 22.22° C 71% 1012.5 hPa 0 mm - 134 W/m² -
1788173231 22.22° C 71% 1012.5 hPa 0 mm - 185 W/m² -
1788173169 22.22° C 71% 1012.5 hPa 0 mm - 185 W/m² -
1788172926 22.22° C 70% 1012.3 hPa 0 mm - 213 W/m² -
1788172869 22.22° C 70% 1012.3 hPa 0 mm - 213 W/m² -
1788172672 22.22° C 70% 1012.3 hPa 0 mm - 165 W/m² -
1788172569 22.22° C 70% 1012.3 hPa 0 mm - 165 W/m² -
1788172322 22.22° C 70% 1012.2 hPa 0 mm - 151 W/m² -
1788172269 22.22° C 70% 1012.2 hPa 0 mm - 151 W/m² -
1788172045 22.22° C 69% 1012.3 hPa 0 mm - 171 W/m² -
1788171969 22.22° C 69% 1012.3 hPa 0 mm - 171 W/m² -
1788171741 22.22° C 69% 1012.3 hPa 0 mm - 232 W/m² -
1788171669 22.22° C 69% 1012.3 hPa 0 mm - 232 W/m² -
1788171461 22.22° C 69% 1012.2 hPa 0 mm - 269 W/m² -
1788171369 22.22° C 69% 1012.2 hPa 0 mm - 269 W/m² -
1788171130 22.22° C 68% 1012.2 hPa 0 mm - 220 W/m² -
1788171069 22.22° C 68% 1012.2 hPa 0 mm - 220 W/m² -
1788170856 22.22° C 69% 1012.3 hPa 0 mm - 227 W/m² -
1788170769 22.22° C 69% 1012.3 hPa 0 mm - 227 W/m² -
1788170529 22.22° C 68% 1012.4 hPa 0 mm - 234 W/m² -
1788170468 22.22° C 68% 1012.4 hPa 0 mm - 234 W/m² -
1788170168 22.22° C 68% 1012.5 hPa 0 mm - 248 W/m² -
1788169996 22.22° C 68% 1012.5 hPa 0 mm - 287 W/m² -
1788169869 22.22° C 68% 1012.5 hPa 0 mm - 287 W/m² -
1788169641 22.22° C 69% 1012.4 hPa 0 mm - 301 W/m² -

* Rain latest hour (hover to see other rain measurements)
** Current wind speed in m/s (hover to see current wind gust speed)